Flag for Canada Weather past 2 weeks in Prince Rupert, British Columbia, Canada

Now
50 °F

Fog.


Feels Like: 47 °F
Forecast: 47 / 57 °F
Wind: 7 mph from West

Location: Prince Rupert

Current Time: May 24, 2015 at 3:34:13 PM

Latest Report: May 24, 2015 at 2:00 PM


Visibility: 3 mi

Pressure: 30.18 "Hg

Humidity: 94%

Dew point: 48 °F

Location of Prince RupertLocation

Historic Weather in Prince Rupert — Graph

°F

Prince Rupert temperature yesterday

Maximum temperature yesterday: 54 °F (at 11:59 AM)
Minimum temperature yesterday: 48 °F (at 12:00 AM)
Average temperature yesterday: 50 °F

Past Weeks' High & Low Weather Summary

 TemperatureHumidityPressure
High59 °F (May 12, 4:00 PM)100% (May 11, 2:00 AM)30.24 "Hg (May 11, 2:00 AM)
Low41 °F (May 12, 5:00 AM)55% (May 12, 4:00 PM)29.78 "Hg (May 12, 6:00 PM)
Average50 °F91%30.06 "Hg
* Reported May 9 2:00 PM — May 24 2:00 PM, Prince Rupert, Weather by CustomWeather, © 2015

Note: Actual official high and low records may vary slightly from our data, if they occured in-between our weather recording intervals... More about our weather records

Advertising

Prince Rupert weather history for previous 24 hours

 ConditionsComfort  
Time TempWeatherWind HumidityBarometerVisibility
2:00 PM
Sun, May 24
50 °FFog.7 mph94%30.18 "Hg3 mi
1:52 PM50 °FFog.6 mph100%30.19 "Hg3 mi
1:00 PM50 °FFog.6 mph94%30.19 "Hg1 mi
12:00 PM50 °FFog.7 mph94%30.19 "Hg6 mi
11:01 AM50 °FFog.5 mph94%30.20 "Hg2 mi
10:00 AM48 °FFog.8 mph100%30.20 "Hg1 mi
9:00 AM48 °FFog.7 mph100%30.20 "Hg1 mi
8:04 AM48 °FFog.7 mph100%30.20 "Hg3 mi
8:00 AM48 °FFog.6 mph100%30.20 "Hg2 mi
7:57 AM48 °FFog.5 mph100%30.20 "Hg2 mi
7:01 AM48 °FFog.5 mph100%30.21 "Hg2 mi
6:02 AM48 °FFog.3 mph100%30.21 "Hg2 mi
5:00 AM48 °FFog.No wind100%30.21 "Hg6 mi
4:59 AM48 °FFog.No wind100%30.21 "Hg6 mi
4:00 AM48 °FFog.5 mph94%30.22 "Hg6 mi
3:55 AM48 °FFog.5 mph94%30.22 "Hg6 mi
3:03 AM48 °FFog.5 mph100%30.23 "Hg6 mi
2:01 AM48 °FFog.6 mph100%30.23 "Hg2 mi
1:00 AM48 °FFog.2 mph100%30.22 "Hg2 mi
12:00 AM48 °FFog.5 mph100%30.23 "Hg1 mi
11:55 PM
Sat, May 23
48 °FFog.3 mph100%30.23 "Hg2 mi
11:04 PM48 °FFog.6 mph100%30.24 "Hg2 mi
10:00 PM48 °FLow clouds.6 mph100%30.23 "Hg9 mi
9:00 PM48 °FFog.2 mph100%30.21 "Hg4 mi
8:55 PM48 °FFog.2 mph100%30.21 "Hg3 mi
8:00 PM48 °FFog.7 mph100%30.21 "Hg2 mi
7:46 PM50 °FFog.7 mph94%30.21 "Hg2 mi
7:00 PM50 °FFog.5 mph94%30.22 "Hg1 mi
6:00 PM52 °FFog.6 mph94%30.21 "Hg2 mi
5:00 PM52 °FMostly cloudy.5 mph94%30.21 "Hg9 mi
4:00 PM52 °FFog.6 mph94%30.21 "Hg6 mi
3:00 PM52 °FMostly cloudy.7 mph94%30.21 "Hg7 mi
Weather by CustomWeather, © 2015

See weather overviewHow to use our weather pages